FW0303 Weather Reports


time (UTC)temp
C
wind
direction
speed
KPH
gust
KPH
rain 1hr
cm
rain 24hr
cm
rain mn
cm
humidity
%
barometer
mb
20260510190026 23 244 0.0 0.0 0.00 0.36 0.00 54 1012.7
20260510184515 23 211 0.0 0.0 0.00 0.36 0.00 54 1012.7
20260510183014 24 26 0.0 0.0 0.00 0.36 0.00 53 1012.7
20260510181514 25 310 0.0 0.0 0.00 0.36 0.00 53 1012.6
20260510180010 24 275 0.0 0.0 0.00 0.36 0.00 51 1012.8
20260510174509 24 203 0.0 0.0 0.00 0.36 0.00 58 1012.7
20260510173005 23 323 0.0 0.0 0.00 0.36 0.00 57 1012.7
20260510171503 23 249 0.0 0.0 0.00 0.36 0.00 67 1012.7
20260510170101 22 246 0.0 0.0 0.00 0.36 0.00 65 1012.7
20260510164601 22 254 0.0 0.0 0.00 0.36 0.00 66 1012.8
20260510163059 21 300 0.0 0.0 0.00 0.36 0.00 69 1012.8
20260510161548 20 315 0.0 0.0 0.00 0.36 0.00 73 1012.9
20260510160047 19 288 0.0 0.0 0.00 0.36 0.00 75 1012.9
20260510154541 18 277 0.0 0.0 0.00 0.36 0.00 78 1013.2
20260510153040 17 269 0.0 0.0 0.00 0.36 0.00 80 1013.2
20260510151535 16 268 0.0 0.0 0.00 0.36 0.00 83 1013.3
20260510150030 16 264 0.0 0.0 0.00 0.36 0.00 86 1013.2
20260510144525 15 252 0.0 0.0 0.00 0.36 0.00 88 1013.3
20260510143020 14 246 0.0 0.0 0.00 0.36 0.00 88 1013.4
20260510141517 13 269 0.0 0.0 0.00 0.36 0.00 88 1013.3
20260510140016 12 189 0.0 0.0 0.00 0.36 0.00 88 1013.3
20260510134513 12 189 0.0 0.0 0.00 0.36 0.00 88 1013.1
20260510133009 12 189 0.0 0.0 0.00 0.36 0.00 88 1013.2
20260510131507 12 189 0.0 0.0 0.00 0.36 0.00 88 1013.2
20260510130006 11 176 0.0 0.0 0.00 0.36 0.00 88 1013.1
20260510124503 11 176 0.0 0.0 0.00 0.36 0.00 88 1012.8
20260510123100 11 176 0.0 0.0 0.00 0.36 0.00 87 1012.8
20260510121558 11 176 0.0 0.0 0.00 0.36 0.00 88 1012.8
20260510120055 11 159 0.0 0.0 0.00 0.36 0.00 88 1012.6
20260510114606 11 159 0.0 0.0 0.00 0.36 0.00 88 1012.4
20260510113056 10 159 0.0 0.0 0.00 0.36 0.00 87 1012.4
20260510111547 10 159 0.0 0.0 0.00 0.36 0.00 87 1012.4
20260510110051 10 155 0.0 0.0 0.00 0.36 0.00 87 1012.1
20260510104540 10 111 0.0 0.0 0.00 0.36 0.00 87 1011.9
20260510103042 10 110 0.0 0.0 0.00 0.36 0.00 87 1011.7
20260510101535 10 108 0.0 0.0 0.00 0.36 0.00 87 1011.7
20260510100045 10 109 0.0 1.6 0.00 0.36 0.00 88 1011.5
20260510094537 10 109 0.0 1.6 0.00 0.36 0.00 87 1011.6
20260510093027 9 117 0.0 1.6 0.00 0.36 0.00 87 1011.6
20260510091527 9 100 0.0 3.2 0.00 0.36 0.00 87 1011.5
20260510090021 8 273 0.0 0.0 0.00 0.36 0.00 88 1011.6
20260510084517 8 219 0.0 0.0 0.00 0.36 0.00 87 1011.3
20260510083016 7 219 0.0 0.0 0.00 0.36 0.00 87 1011.1
20260510081523 7 219 0.0 0.0 0.00 0.36 0.00 87 1011.0
20260510080036 7 219 0.0 0.0 0.00 0.36 0.00 87 1011.1
20260510074514 7 219 0.0 0.0 0.00 0.36 0.00 87 1010.9
20260510073020 7 219 0.0 0.0 0.00 0.36 0.00 87 1011.0
20260510071518 6 219 0.0 0.0 0.00 0.36 0.00 86 1010.9
20260510070011 7 219 0.0 0.0 0.00 0.36 0.00 86 1010.7
20260510064511 7 219 0.0 0.0 0.00 0.36 0.00 86 1010.5
20260510063006 7 219 0.0 0.0 0.00 0.36 0.00 86 1010.5
20260510061505 7 219 0.0 0.0 0.00 0.36 0.00 86 1010.7
20260510060007 7 219 0.0 0.0 0.00 0.36 0.00 86 1010.8
20260510054501 8 219 0.0 0.0 0.00 0.36 0.00 86 1011.0
20260510053100 8 219 0.0 0.0 0.00 0.36 0.00 86 1011.1
20260510051608 8 219 0.0 0.0 0.00 0.36 0.00 86 1011.1
20260510050115 8 219 0.0 0.0 0.00 0.36 0.00 86 1011.2
20260510044555 8 219 0.0 0.0 0.00 0.36 0.00 86 1011.3
20260510043054 8 219 0.0 0.0 0.00 0.36 0.00 86 1011.3
20260510041551 8 219 0.0 0.0 0.00 0.36 0.00 86 1011.4
20260510040047 8 219 0.0 0.0 0.00 0.36 0.00 86 1011.3
20260510034546 8 219 0.0 0.0 0.00 0.36 0.36 85 1011.2
20260510033054 8 219 0.0 0.0 0.00 0.36 0.36 85 1010.9
20260510031548 8 219 0.0 0.0 0.00 0.36 0.36 85 1011.1
20260510030044 8 219 0.0 0.0 0.00 0.36 0.36 85 1010.9
20260510024542 8 219 0.0 0.0 0.00 0.36 0.36 85 1010.7
20260510023041 8 219 0.0 0.0 0.00 0.36 0.36 85 1010.8
20260510021634 9 219 0.0 0.0 0.00 0.36 0.36 85 1010.7
20260510020042 9 219 0.0 0.0 0.00 0.36 0.36 85 1010.7
20260510014551 10 219 0.0 0.0 0.00 0.36 0.36 85 1010.8
20260510013043 10 219 0.0 0.0 0.00 0.36 0.36 84 1010.8
20260510011539 10 219 0.0 0.0 0.00 0.36 0.36 84 1010.7
20260510010049 10 219 0.0 0.0 0.00 0.36 0.36 84 1010.5
20260510004538 11 219 0.0 0.0 0.00 0.36 0.36 84 1010.5
20260510003038 11 219 0.0 0.0 0.00 0.36 0.36 84 1010.3
20260510001540 11 219 0.0 0.0 0.00 0.36 0.36 84 1010.2
20260510000037 12 219 0.0 0.0 0.00 0.36 0.36 84 1010.1
20260509234536 12 219 0.0 0.0 0.00 0.36 0.36 84 1010.0
20260509233036 12 219 0.0 0.0 0.00 0.36 0.36 84 1010.1
20260509231535 13 219 0.0 0.0 0.00 0.36 0.36 84 1010.0
20260509230039 13 219 0.0 0.0 0.00 0.36 0.36 84 1010.0
20260509224534 13 219 0.0 0.0 0.00 0.36 0.36 84 1010.0
20260509223135 13 219 0.0 0.0 0.05 0.36 0.36 84 1010.0
20260509221535 13 219 0.0 0.0 0.25 0.36 0.36 83 1010.2
20260509220032 13 219 0.0 3.2 0.36 0.36 0.36 83 1010.4
20260509214531 13 219 0.0 0.0 0.36 0.36 0.36 81 1010.7
20260509213035 13 219 0.0 1.6 0.30 0.30 0.30 80 1010.8
20260509211530 14 219 0.0 1.6 0.08 0.08 0.08 78 1010.7
20260509210032 15 219 0.0 0.0 0.00 0.00 0.00 75 1010.7
20260509204527 15 213 0.0 0.0 0.00 0.00 0.00 74 1010.1
20260509203028 15 285 0.0 0.0 0.00 0.00 0.00 73 1010.4
20260509201526 15 221 0.0 0.0 0.00 0.00 0.00 73 1010.3
20260509200024 15 355 0.0 0.0 0.00 0.00 0.00 74 1010.2
20260509194532 15 287 0.0 0.0 0.00 0.00 0.00 75 1010.4
20260509193023 15 254 0.0 0.0 0.00 0.00 0.00 73 1010.5
20260509191520 15 80 0.0 0.0 0.00 0.00 0.00 72 1010.6